Simultaneous Nadir Overpasses (SNOs) Predictions

Prediction of SNOs between LANDSAT-8 and NOAA-19 Satellite Orbit:

Table of predicted SNOs for the next 14.0 days since TLE Epoch: 7/13/2019
Index Date (LANDSAT-8) Time (LANDSAT-8) Lat,Lon (LANDSAT-8) SZA (LANDSAT-8 ) Date (NOAA-19) Time (NOAA-19) Lat,Lon (NOAA-19) SZA (NOAA-19 ) Distance(km) Time Diff (sec)
1 07/13/2019 13:43:17 78.90, -5.62 57.68 07/13/2019 13:42:38 78.92, -5.70 57.68 2.57 39
2 07/13/2019 14:32:45 -78.87, 161.80 122.37 07/13/2019 14:33:41 -78.89, 161.74 122.33 3.39 56
3 07/15/2019 19:17:02 -78.90, 90.94 121.99 07/15/2019 19:16:06 -78.93, 90.94 121.98 3.31 56
4 07/15/2019 20:06:28 78.90,-101.43 58.01 07/15/2019 20:07:02 78.88,-101.44 58.01 1.64 34
5 07/18/2019 00:50:43 79.01,-171.84 58.53 07/18/2019 00:49:33 79.11,-173.72 58.47 41.04 70
6 07/18/2019 01:40:13 -78.90, -4.87 121.62 07/18/2019 01:40:30 -78.91, -4.93 121.61 1.98 17
7 07/20/2019 07:13:56 78.93, 91.85 58.81 07/20/2019 07:13:52 78.91, 91.81 58.80 1.68 4
8 07/22/2019 12:47:41 -78.93,-171.58 120.76 07/22/2019 12:47:19 -78.94,-171.70 120.76 3.26 22
9 07/22/2019 13:37:07 78.92, -3.98 59.24 07/22/2019 13:38:16 78.88, -3.98 59.23 3.76 69
10 07/24/2019 18:21:24 78.94, -74.89 59.72 07/24/2019 18:20:42 78.95, -75.00 59.71 2.42 42
11 07/24/2019 19:10:52 -78.92, 92.59 120.31 07/24/2019 19:11:42 -78.90, 92.62 120.31 1.98 50
12 07/26/2019 23:55:09 -78.95, 21.68 119.80 07/26/2019 23:54:07 -78.95, 21.70 119.80 0.94 62




NCC Satellite Simultaneous Nadir Overpasses (SNOs) Prediction Service
